Total_Precipitation_Accumulation
0.25 0.13 0.16 0.14 0.12 0.12 0.11 0.12 0.15 0.16 0.15 0.13 0.12 0.10 0.10 0.10 0.09 0.08 0.07 0.09 0.12 0.17 0.23 0.24 0.26 0.30 0.32 0.27 0.19 0.16 0.17 0.17 0.19 0.21 0.25 0.28 0.33 0.39 0.43 0.42 0.49 0.47 0.42
0.31 0.16 0.16 0.15 0.15 0.15 0.12 0.13 0.14 0.15 0.13 0.12 0.11 0.10 0.10 0.10 0.10 0.10 0.10 0.11 0.13 0.16 0.17 0.19 0.22 0.23 0.22 0.16 0.13 0.12 0.13 0.17 0.27 0.39 0.49 0.51 0.53 0.55 0.63 0.66 0.71 0.71 0.47
0.45 0.29 0.20 0.17 0.15 0.15 0.13 0.14 0.15 0.15 0.14 0.13 0.12 0.11 0.10 0.10 0.10 0.11 0.11 0.12 0.16 0.18 0.17 0.16 0.15 0.14 0.13 0.12 0.12 0.14 0.18 0.25 0.46 0.69 1.03 1.25 1.02 0.89 0.84 0.80 0.73 0.59 0.52
0.41 0.37 0.27 0.23 0.18 0.15 0.14 0.14 0.16 0.16 0.15 0.13 0.12 0.11 0.10 0.10 0.11 0.13 0.14 0.15 0.20 0.22 0.21 0.17 0.14 0.12 0.11 0.12 0.13 0.17 0.24 0.36 0.62 0.95 1.63 1.69 1.61 1.50 1.04 0.80 0.69 0.64 0.69
0.33 0.32 0.33 0.26 0.21 0.19 0.17 0.18 0.20 0.20 0.17 0.15 0.15 0.15 0.15 0.14 0.14 0.16 0.21 0.24 0.24 0.25 0.26 0.24 0.20 0.17 0.15 0.13 0.15 0.20 0.27 0.42 0.78 1.16 1.67 2.12 2.38 1.95 1.35 1.01 0.81 0.75 0.81
0.35 0.33 0.31 0.29 0.26 0.27 0.26 0.23 0.22 0.22 0.20 0.20 0.19 0.19 0.18 0.18 0.19 0.22 0.30 0.35 0.33 0.31 0.34 0.33 0.30 0.23 0.18 0.17 0.19 0.25 0.34 0.53 0.77 1.15 1.70 2.35 2.25 1.86 1.50 1.25 1.03 0.95 0.94
0.38 0.41 0.33 0.37 0.36 0.35 0.34 0.31 0.30 0.27 0.27 0.29 0.28 0.25 0.23 0.23 0.26 0.30 0.37 0.40 0.40 0.39 0.39 0.36 0.29 0.21 0.18 0.19 0.23 0.28 0.40 0.59 0.77 1.30 1.79 2.17 1.99 1.68 1.54 1.40 1.30 1.18 1.08
0.41 0.36 0.37 0.40 0.43 0.41 0.40 0.41 0.40 0.37 0.35 0.34 0.34 0.33 0.29 0.28 0.30 0.36 0.40 0.42 0.43 0.40 0.36 0.32 0.27 0.24 0.23 0.24 0.26 0.33 0.44 0.51 0.60 1.12 1.60 1.77 1.51 1.50 1.60 1.46 1.37 1.26 1.16
0.50 0.49 0.53 0.58 0.58 0.57 0.57 0.55 0.51 0.47 0.43 0.39 0.37 0.32 0.29 0.30 0.34 0.38 0.44 0.49 0.47 0.39 0.35 0.33 0.30 0.27 0.26 0.26 0.26 0.31 0.39 0.52 0.59 0.91 1.46 1.77 1.34 1.44 1.66 1.54 1.38 1.29 1.21
0.87 0.88 0.91 0.90 0.82 0.71 0.65 0.66 0.64 0.58 0.53 0.46 0.38 0.33 0.34 0.38 0.45 0.52 0.49 0.50 0.49 0.45 0.41 0.41 0.37 0.31 0.30 0.29 0.29 0.34 0.41 0.44 0.48 0.84 1.36 1.46 1.38 1.67 1.86 1.68 1.45 1.39 1.24
1.49 1.45 1.29 1.20 1.03 1.00 0.91 0.71 0.73 0.70 0.65 0.56 0.51 0.45 0.48 0.61 0.77 0.84 0.69 0.71 0.65 0.60 0.58 0.58 0.53 0.49 0.44 0.39 0.40 0.45 0.48 0.45 0.65 1.00 1.57 1.66 1.82 1.97 2.09 1.93 1.67 1.53 1.43
1.95 1.83 1.54 1.50 1.45 1.29 1.12 1.02 0.98 0.86 0.84 0.77 0.87 0.77 0.85 1.16 1.28 1.12 1.11 0.99 0.98 0.93 0.82 0.82 0.78 0.65 0.58 0.59 0.68 0.68 0.51 0.56 0.76 1.06 1.38 1.63 1.85 2.08 2.16 1.98 1.77 1.63 1.65
1.96 1.74 1.72 1.82 1.73 1.68 1.65 1.55 1.38 1.32 1.28 1.15 1.26 1.25 1.33 1.35 1.28 1.31 1.43 1.35 1.27 1.21 1.24 1.26 1.06 0.89 0.91 0.97 0.96 0.85 0.71 0.78 0.85 1.04 1.34 1.56 1.76 2.15 2.30 2.08 1.86 1.81 1.82
2.20 1.94 1.85 1.78 1.84 1.96 1.91 1.86 1.86 1.82 1.79 1.69 1.65 1.48 1.64 1.72 1.76 1.75 1.88 1.86 1.87 1.88 1.86 1.74 1.56 1.41 1.29 1.25 1.20 1.16 1.02 1.00 1.12 1.33 1.49 1.51 1.63 1.99 2.26 2.25 2.05 1.93 1.88
2.75 2.46 2.20 2.17 2.11 2.11 2.21 2.23 2.01 2.09 2.09 2.22 2.16 1.91 1.97 2.04 2.09 2.26 2.26 2.34 2.30 2.46 2.39 2.19 1.93 1.81 1.65 1.41 1.32 1.34 1.31 1.28 1.33 1.44 1.63 1.69 1.67 1.89 2.23 2.43 2.34 2.22 2.21
3.08 2.85 2.56 2.40 2.36 2.27 2.45 2.63 2.51 2.34 2.36 2.37 2.42 2.29 2.31 2.38 2.48 2.56 2.59 2.65 2.52 2.54 2.57 2.46 2.17 2.02 1.87 1.67 1.47 1.38 1.37 1.51 1.52 1.46 1.67 1.79 1.72 1.73 2.03 2.42 2.62 2.74 2.83
3.29 2.97 2.90 2.67 2.78 2.89 3.11 3.04 3.03 2.97 2.91 2.83 2.73 2.75 2.68 2.71 2.81 2.82 2.99 3.03 2.90 2.82 2.75 2.67 2.52 2.28 2.16 2.06 1.92 1.74 1.62 1.61 1.73 1.80 1.83 1.93 1.99 1.93 2.05 2.31 2.57 2.78 2.94
3.26 3.20 3.27 3.06 3.05 3.21 3.24 3.18 3.23 3.43 3.39 3.25 3.12 3.15 3.06 3.08 3.19 3.35 3.30 3.16 3.05 2.95 2.91 3.02 2.85 2.56 2.48 2.51 2.38 2.05 1.76 1.78 1.88 1.95 1.92 1.99 2.15 2.10 2.15 2.13 2.26 2.49 2.73
3.18 3.10 3.26 3.42 3.22 3.36 3.45 3.46 3.51 3.64 3.70 3.70 3.66 3.55 3.49 3.53 3.53 3.68 3.63 3.43 3.23 3.15 3.15 2.96 2.96 2.86 2.87 2.79 2.40 2.13 1.84 1.77 1.86 1.86 1.90 1.96 2.15 2.25 2.30 2.15 2.22 2.47 2.65
3.22 3.23 3.29 3.56 3.49 3.73 3.82 3.61 3.61 3.63 3.71 3.80 3.92 3.94 4.03 4.05 3.99 3.97 3.85 3.71 3.57 3.42 3.31 3.18 3.16 3.11 2.96 2.82 2.40 2.15 1.91 1.74 1.75 1.82 1.84 1.91 1.96 1.99 2.09 2.14 2.19 2.15 2.33
3.45 3.53 3.48 3.56 3.74 3.86 3.98 3.96 4.09 4.01 3.97 4.18 4.38 4.44 4.56 4.60 4.44 4.39 4.28 4.14 3.91 3.65 3.46 3.29 3.18 3.04 2.81 2.71 2.58 2.32 1.95 1.69 1.71 1.74 1.71 1.78 1.84 1.81 1.86 1.94 2.10 2.05 1.99
3.62 3.69 3.80 3.89 3.90 4.01 4.39 4.80 5.13 5.37 5.40 5.32 5.40 5.41 5.26 5.13 5.02 4.84 4.74 4.52 4.19 3.91 3.62 3.38 3.17 2.92 2.68 2.63 2.64 2.68 2.32 1.98 1.62 1.41 1.45 1.50 1.53 1.54 1.61 1.72 1.76 1.79 1.78
3.41 3.62 3.69 3.93 4.25 4.70 5.24 5.66 5.96 6.23 6.33 6.11 5.86 5.74 5.51 5.27 5.10 4.75 4.50 4.40 4.14 3.75 3.49 3.33 3.15 2.93 2.70 2.59 2.54 2.68 2.52 2.21 1.83 1.59 1.41 1.31 1.35 1.44 1.48 1.57 1.61 1.55 1.51
3.03 3.30 3.56 3.83 4.41 5.25 5.91 6.35 6.69 6.79 6.73 6.56 6.31 5.93 5.44 5.06 4.71 4.42 4.15 3.87 3.62 3.32 3.09 2.91 2.82 2.78 2.68 2.51 2.45 2.29 2.10 1.96 1.96 1.76 1.55 1.45 1.43 1.45 1.40 1.35 1.38 1.41 1.40
2.78 3.04 3.38 3.73 4.36 5.05 5.68 6.27 6.67 6.78 6.68 6.44 5.99 5.48 4.94 4.46 4.05 3.71 3.43 3.16 2.92 2.65 2.44 2.27 2.25 2.37 2.42 2.38 2.35 2.32 2.19 2.06 1.98 1.85 1.71 1.66 1.63 1.57 1.45 1.37 1.33 1.30 1.29
2.34 2.61 3.00 3.39 3.91 4.46 4.85 5.37 5.74 5.90 5.81 5.45 4.93 4.34 3.93 3.64 3.34 3.01 2.74 2.50 2.25 2.01 1.87 1.80 1.77 1.82 1.96 2.05 2.10 2.11 2.10 2.16 2.15 2.08 1.95 1.87 1.82 1.72 1.58 1.48 1.40 1.37 1.33